Theta_e
325 325 324 323 322 321 321 320 319 318 317 316 315 313 310 309 309 309 309 309 308 308 308 309 311 313 306 290 292 305 317 317 309 306 301 299 296 296 294 294 294 293 295 295 297 295 295
324 323 323 322 322 321 321 320 319 318 317 316 315 312 310 309 309 309 309 308 307 307 308 309 311 313 302 287 297 303 303 303 304 303 299 300 298 298 295 293 292 293 294 294 295 296 296
325 324 323 322 321 321 321 319 319 318 317 316 315 312 311 309 309 308 308 307 306 306 308 309 310 309 299 292 303 306 307 303 302 302 299 300 301 299 297 294 296 295 291 292 294 294 294
325 324 323 322 321 320 319 319 318 318 317 316 314 312 311 309 308 308 307 307 306 307 309 310 310 306 297 302 305 309 308 302 302 301 301 302 301 298 296 297 294 291 289 287 292 293 294
320 323 324 322 320 319 318 318 318 318 318 316 314 312 310 309 308 307 306 306 306 310 310 311 306 303 296 309 303 303 303 300 301 301 301 301 299 295 295 291 288 288 284 285 288 293 292
322 323 323 322 321 319 319 318 317 317 317 315 313 311 310 308 307 306 306 305 306 307 307 307 306 294 297 295 299 299 301 301 298 298 295 296 294 291 290 290 282 284 283 284 284 290 290
317 319 322 322 321 320 319 318 317 316 316 315 312 311 309 307 306 305 302 298 293 293 300 292 294 292 298 301 300 297 297 296 294 292 287 289 289 286 285 287 288 285 284 283 286 289 288
314 316 318 321 321 321 320 319 317 316 315 314 312 311 308 305 304 303 301 294 294 296 288 294 298 299 300 300 293 294 297 292 290 285 287 286 283 286 287 286 284 283 283 283 286 289 288
312 313 315 317 320 321 321 320 317 315 314 313 311 309 306 303 303 300 297 295 300 298 286 288 294 295 296 297 291 291 294 291 287 285 285 283 284 287 285 284 284 283 281 281 281 286 288
311 312 312 313 315 319 320 319 318 315 314 311 310 306 303 301 295 298 294 299 301 300 281 284 290 293 294 293 289 293 293 291 288 284 284 284 286 285 284 283 284 281 284 283 282 282 278
309 310 311 312 312 313 316 318 317 315 312 310 307 305 302 300 296 295 297 299 302 296 276 289 290 296 292 289 290 290 293 292 286 285 286 283 283 283 282 283 285 282 285 283 283 282 281
308 309 310 311 311 312 314 315 315 313 311 309 306 304 302 298 297 299 300 302 300 281 274 286 289 287 286 288 288 290 290 292 290 286 286 284 287 286 285 286 285 286 283 282 283 282 276
307 308 309 310 310 311 312 314 313 311 310 307 305 303 299 298 292 300 300 297 281 276 287 282 284 286 285 284 285 286 285 284 281 279 279 282 283 285 287 283 285 284 281 275 274 276 274
307 308 308 309 310 310 311 313 312 310 308 306 304 302 300 299 299 299 299 289 275 281 283 285 284 284 282 284 284 284 282 281 285 282 279 277 276 282 286 284 281 281 280 275 268 270 273
306 307 308 309 310 309 310 311 311 309 307 305 302 294 294 297 298 298 292 279 279 282 285 283 284 281 281 283 283 283 281 281 284 284 279 277 277 284 285 286 284 280 278 282 276 277 273
306 306 306 307 308 309 309 310 310 308 305 302 292 292 294 298 299 296 287 280 281 285 285 285 280 282 278 280 280 280 281 285 283 286 286 281 275 282 284 286 286 283 285 277 278 268 267
306 306 306 305 306 307 308 309 308 305 303 300 291 285 296 299 300 291 280 281 284 286 287 284 281 280 280 280 280 280 281 284 286 285 286 284 280 278 283 280 279 282 280 281 280 278 272
305 305 306 306 306 306 307 309 306 303 301 299 292 283 295 300 286 287 282 285 288 285 288 285 285 283 281 281 280 280 280 283 288 286 282 285 281 276 278 284 285 284 282 281 276 273 278
305 303 303 305 306 306 307 308 304 301 302 295 287 287 296 296 280 282 285 284 286 285 285 284 282 284 285 282 279 282 283 286 286 285 283 285 280 274 276 280 283 281 283 283 282 281 276
303 303 303 304 305 306 307 306 303 302 302 296 288 282 287 290 289 284 282 282 281 286 285 285 284 286 283 281 283 281 281 285 286 285 290 288 281 277 273 276 280 278 280 282 281 277 277
302 302 302 302 305 305 307 305 302 302 302 295 288 284 287 281 283 284 285 284 281 281 286 287 284 284 283 279 280 280 282 282 285 290 287 286 278 280 281 281 281 280 280 281 279 280 277
301 303 304 304 305 306 306 303 302 302 303 293 285 284 287 284 286 284 285 282 282 283 285 283 283 284 283 281 282 279 281 282 282 285 284 285 278 280 278 281 281 279 280 280 281 282 281
307 307 307 306 306 306 304 302 301 302 301 293 291 292 289 284 285 282 282 283 283 285 286 287 285 284 283 283 285 286 285 285 286 284 283 282 280 278 275 280 280 276 279 279 280 281 280
308 308 307 306 305 303 302 301 302 301 299 294 291 290 286 281 284 283 285 285 284 284 283 285 287 284 286 289 289 288 285 284 284 284 285 281 281 280 276 278 270 279 283 282 281 282 282
306 306 306 304 304 303 302 301 301 301 298 294 293 291 287 282 285 285 284 284 286 287 284 285 286 288 289 287 283 281 281 282 283 284 283 285 282 278 274 274 277 279 281 280 278 278 283
303 303 303 302 302 301 300 301 301 300 299 295 293 293 291 285 283 287 285 285 282 282 283 284 287 289 288 284 282 276 274 278 278 279 283 283 282 279 277 271 270 279 282 285 284 276 284
302 302 302 301 301 300 300 301 301 300 299 295 291 293 290 284 286 288 283 283 286 284 282 284 285 285 286 280 278 277 276 281 276 274 273 277 276 275 275 272 275 282 284 286 275 276 284
300 300 300 300 299 299 299 299 300 301 299 294 289 292 291 285 286 289 289 285 285 285 282 284 283 283 281 278 277 278 278 279 278 278 275 276 274 274 273 270 271 284 283 279 282 285 286
299 299 299 299 299 300 300 301 302 301 299 295 290 292 293 288 287 290 289 289 291 289 285 284 283 281 282 278 277 279 279 279 278 274 279 276 279 278 278 279 282 286 283 285 286 284 285
Wind_Speed
22 22 21 20 19 18 17 17 15 13 12 10 8 6 4 5 6 7 10 11 12 12 13 14 16 16 6 2 7 1 3 1 1 1 2 3 2 3 2 2 3 4 4 3 5 11 9
22 22 22 22 21 19 18 18 16 14 13 11 9 7 6 6 5 7 10 11 11 13 12 11 12 14 2 3 1 1 5 1 2 2 2 3 4 4 2 2 2 1 5 11 8 12 10
23 23 22 21 21 20 20 19 16 14 14 13 11 9 9 6 5 7 9 12 13 12 12 9 7 3 3 11 1 4 3 3 4 3 2 2 2 3 5 2 0 3 6 7 7 5 5
20 23 23 22 22 22 20 19 17 17 15 14 14 12 8 5 5 8 11 13 14 17 10 5 2 1 7 3 2 6 2 2 1 3 1 3 2 2 1 0 3 3 1 4 3 6 2
15 16 21 22 23 22 22 21 19 18 16 16 15 11 8 3 3 7 11 15 15 9 3 6 4 2 8 7 2 1 2 1 1 2 2 4 3 3 3 2 3 4 4 7 7 7 4
12 16 17 19 23 23 22 22 21 20 18 17 16 11 9 5 2 5 11 14 8 1 2 2 1 1 4 1 3 3 1 2 4 4 3 5 5 2 2 1 3 3 5 4 9 6 13
10 9 15 18 24 25 24 23 21 21 19 18 17 13 7 3 2 5 7 3 2 1 1 5 4 2 3 9 4 0 2 3 3 6 3 3 3 0 2 2 2 3 4 7 8 7 12
11 11 9 12 16 22 23 23 22 17 19 19 18 15 11 3 2 4 2 3 2 0 4 6 6 5 3 2 3 3 1 4 4 3 1 3 3 1 3 3 1 2 4 6 9 11 12
14 11 11 11 12 16 18 19 19 19 21 19 19 17 13 2 3 1 2 3 3 2 1 4 5 5 5 5 2 2 3 3 4 3 3 2 2 3 1 5 3 5 3 3 6 11 7
14 12 10 11 13 13 17 19 19 19 20 22 21 20 14 6 4 1 2 2 3 2 2 3 4 3 4 6 3 3 5 3 4 3 3 4 3 4 5 4 4 2 6 5 9 12 7
15 16 12 12 12 13 15 19 17 19 22 23 23 21 16 6 3 3 2 3 4 2 4 4 2 2 3 6 6 4 2 5 3 3 2 3 2 4 5 2 1 2 6 9 8 11 6
17 16 14 16 13 12 13 18 22 25 27 26 25 23 19 6 2 1 2 2 3 3 8 3 4 4 5 3 3 4 6 7 2 4 4 3 2 3 2 1 2 9 5 6 1 2 4
19 16 17 18 15 12 12 18 22 27 28 28 25 23 13 8 5 6 4 2 4 5 2 5 4 4 6 2 5 4 5 6 3 3 2 3 1 1 2 3 2 7 5 4 2 1 3
20 19 20 19 16 13 12 16 27 31 30 28 24 20 9 3 3 7 3 1 6 4 4 3 5 6 5 2 3 2 4 4 7 4 3 2 3 1 4 3 3 4 3 0 5 3 9
21 20 19 17 17 15 13 14 27 32 31 29 26 3 3 2 4 2 5 4 8 6 5 8 4 4 3 2 5 4 3 3 2 1 4 4 1 2 4 2 1 2 2 3 3 4 7
24 23 21 21 18 17 13 13 28 31 35 32 7 5 1 5 8 2 2 6 3 2 3 2 5 3 6 6 4 4 4 2 4 0 2 3 1 1 2 3 4 1 1 2 2 4 5
25 25 24 25 22 18 15 14 33 37 36 24 8 7 1 3 3 3 8 6 3 2 3 2 4 6 5 6 4 4 6 3 4 3 2 3 2 2 1 3 3 3 2 2 2 4 3
28 26 23 22 23 19 19 19 35 37 33 6 5 5 4 1 5 2 8 5 4 4 2 3 5 6 5 4 4 3 6 4 4 5 5 3 3 3 2 3 5 3 4 3 2 3 4
29 29 28 24 23 21 22 31 37 39 29 9 3 6 1 1 7 8 4 4 2 4 3 3 4 3 2 5 6 5 5 6 4 6 6 6 3 1 4 2 2 4 4 3 3 4 9
32 33 31 30 29 26 25 36 40 38 23 5 5 7 3 4 1 7 7 5 5 2 3 4 5 5 5 4 4 6 5 3 1 3 8 3 3 3 3 2 2 5 5 5 5 5 7
38 38 38 36 33 32 29 41 43 35 26 5 3 3 6 12 11 5 6 8 8 5 2 2 4 3 7 6 5 5 4 4 2 5 4 2 3 3 7 12 11 13 10 7 7 9 8
43 41 38 36 36 34 41 43 41 34 25 6 6 7 3 9 13 6 6 7 10 5 6 4 8 9 4 6 5 10 8 4 4 2 2 3 3 2 3 2 2 4 6 3 5 6 8
30 29 31 35 38 40 44 43 40 33 16 4 2 2 7 15 13 10 8 7 7 8 4 6 12 7 6 6 4 8 4 6 6 6 4 3 2 0 2 4 3 3 4 1 4 3 3
24 28 34 38 44 45 43 42 37 28 10 2 3 4 6 8 11 9 10 5 14 5 8 9 8 7 3 11 9 11 8 6 4 3 5 6 3 2 3 5 2 4 3 3 3 4 2
28 35 40 42 43 42 41 39 32 23 10 3 2 4 5 7 9 6 14 10 10 11 10 9 3 3 9 4 5 6 1 3 3 3 5 1 3 2 1 2 2 3 1 3 3 2 2
36 38 39 40 39 39 39 34 29 14 4 4 2 1 4 10 4 10 10 17 15 9 4 4 5 2 4 3 3 4 5 4 5 4 5 6 5 1 2 2 3 4 1 4 2 4 6
36 35 35 35 36 36 33 30 26 16 9 3 2 2 5 6 2 9 5 10 7 5 6 4 5 3 2 2 2 2 3 3 7 7 5 3 2 3 3 3 5 1 6 4 4 3 7
35 34 34 34 32 31 29 28 23 18 12 5 2 2 4 5 3 3 4 6 4 3 8 7 4 1 2 4 3 3 3 3 3 4 5 5 6 3 3 2 3 1 2 3 3 3 4
32 32 31 30 30 28 26 23 19 15 10 5 4 2 3 8 5 2 7 4 3 6 8 2 3 3 4 5 1 3 3 2 4 4 1 2 4 4 6 2 3 1 2 1 2 2 3
Wind_Direction
214 217 214 217 213 211 217 224 217 219 215 211 204 215 252 285 300 316 323 327 329 329 329 330 329 328 343 345 250 171 43 236 35 63 98 120 106 130 185 246 302 224 275 296 271 291 272
218 217 216 212 212 210 212 221 223 215 211 201 194 195 226 242 278 308 317 316 322 319 319 323 329 325 304 265 120 19 356 106 182 143 147 160 158 172 170 205 205 347 289 292 284 270 269
221 219 218 218 212 210 213 215 221 217 211 194 186 190 224 242 278 304 312 311 312 308 304 306 317 336 295 244 69 312 301 211 169 173 154 225 169 167 158 234 348 281 295 305 276 304 288
237 218 218 216 216 211 212 217 217 218 204 194 183 197 202 222 297 316 315 309 311 306 292 276 246 123 255 259 289 299 190 269 172 206 204 136 126 76 198 349 15 316 64 329 342 340 347
247 241 224 218 216 210 210 211 212 213 206 195 184 189 188 184 307 325 315 308 309 316 122 133 116 97 273 320 268 293 193 166 64 98 59 98 68 58 39 57 336 22 309 314 315 317 296
271 248 233 216 214 212 214 214 210 210 206 190 178 180 173 184 246 323 310 305 285 271 126 153 101 308 275 331 319 333 122 100 90 105 78 61 56 56 45 108 265 308 308 287 293 299 315
288 307 260 235 217 212 210 212 212 212 195 180 176 169 163 165 289 11 350 12 284 262 99 218 169 225 296 305 261 81 29 82 48 49 99 46 103 179 303 238 265 279 256 282 294 302 318
281 287 281 255 239 220 213 210 210 203 187 175 167 162 145 178 321 13 97 270 236 301 310 222 252 282 263 246 327 340 52 97 67 91 37 52 118 136 276 53 251 202 310 327 306 328 331
271 274 283 269 250 231 221 213 206 184 184 172 156 145 130 121 346 227 189 245 97 77 308 283 177 207 211 159 176 314 38 87 102 94 54 81 94 337 78 57 58 99 47 326 306 314 276
276 264 269 280 276 249 226 218 200 190 175 160 148 136 123 102 24 217 202 156 93 102 327 245 207 244 150 150 80 11 14 99 40 123 107 81 4 3 56 59 6 316 1 315 313 330 321
264 260 257 265 271 274 234 213 193 173 160 154 145 135 140 144 148 171 86 127 126 66 279 134 175 136 139 132 144 56 358 40 89 110 119 107 50 86 69 338 324 346 310 309 291 282 296
265 257 259 256 250 260 253 210 181 169 161 154 148 145 141 135 200 176 110 148 64 83 252 167 135 165 91 32 55 100 45 38 69 84 43 49 20 54 34 70 102 322 289 276 103 255 253
267 265 264 258 238 238 250 224 175 162 157 151 150 151 153 142 179 140 172 90 109 202 110 171 158 131 102 79 64 58 69 42 80 142 41 23 30 284 21 28 47 7 354 340 298 216 282
259 257 261 252 230 229 239 238 176 164 156 147 142 147 161 146 158 132 112 151 171 203 172 109 102 93 104 92 50 100 102 104 40 60 105 193 181 48 7 59 355 351 25 105 282 285 299
260 255 256 246 234 229 225 242 178 160 147 136 131 91 134 172 122 126 154 184 195 193 167 140 102 98 92 105 129 122 78 112 111 75 168 167 220 307 104 93 238 56 49 17 298 288 275
255 252 249 243 239 228 223 244 172 154 139 137 117 119 155 163 135 139 159 221 207 223 125 184 137 131 150 171 129 118 140 153 120 351 275 155 154 340 4 84 38 13 75 194 123 265 266
251 248 245 244 234 232 226 235 163 149 139 141 96 100 209 179 133 122 198 224 197 221 155 135 126 120 142 155 129 126 138 119 163 149 132 126 207 135 251 168 171 157 164 109 299 237 265
247 245 243 238 229 220 217 197 156 148 143 98 118 104 210 332 144 176 211 195 164 162 112 106 94 106 140 143 113 125 144 141 175 159 165 151 138 220 218 300 229 201 171 152 214 259 268
244 242 241 234 223 212 206 179 157 149 150 118 96 110 318 161 168 185 234 191 145 154 151 120 113 115 123 128 112 123 122 139 124 164 172 165 148 158 114 133 116 202 168 178 220 218 240
253 246 241 231 218 212 206 172 158 156 152 122 127 120 125 214 217 167 183 166 131 58 82 103 110 100 114 96 50 144 128 152 147 161 125 138 153 225 208 94 135 244 210 259 243 255 289
253 247 239 229 214 201 202 167 160 159 163 100 147 165 168 175 205 184 173 160 146 145 96 130 92 160 144 129 118 137 128 118 63 129 90 151 182 227 268 272 267 268 262 241 232 258 266
258 243 227 214 202 190 172 162 158 165 159 83 165 137 107 165 156 172 184 193 162 122 143 166 153 147 126 151 183 167 130 170 167 102 127 50 175 209 272 227 223 227 185 279 260 263 266
229 208 199 185 178 168 159 158 159 160 147 126 216 87 130 163 163 177 179 158 155 128 32 152 134 112 120 140 120 115 102 108 135 145 116 128 172 241 240 325 331 218 172 301 288 215 269
181 173 167 161 155 152 153 157 158 162 133 160 176 120 109 159 174 172 148 136 151 151 131 138 118 109 121 116 106 72 69 98 111 103 133 151 164 192 313 333 260 97 112 298 254 240 344
146 142 140 141 146 150 152 153 158 142 124 179 133 125 125 133 150 123 128 125 110 105 103 113 68 105 144 98 89 111 85 123 117 98 179 116 135 126 339 306 303 151 321 337 349 112 15
124 128 133 138 142 144 146 151 148 127 114 76 61 111 109 122 202 142 136 146 135 126 86 85 50 74 77 85 100 148 170 153 155 116 64 103 65 130 160 244 261 114 8 331 228 228 8
113 117 122 129 131 136 142 145 143 159 183 128 78 44 89 100 3 132 133 141 126 114 102 126 160 101 40 90 107 139 137 154 161 165 168 117 82 188 151 239 282 273 318 302 257 31 341
107 110 113 116 121 126 133 143 166 163 153 85 91 9 105 92 53 46 119 132 98 122 145 158 114 41 85 91 141 156 136 155 127 133 169 169 161 168 124 193 273 193 250 286 24 335 338
109 114 117 124 132 141 144 146 150 143 131 119 85 356 52 80 104 69 79 39 151 153 128 62 120 133 141 103 166 129 131 132 140 178 133 188 199 173 199 219 121 119 183 202 285 318 333